Ida Anna Grazia Barone

ROAD RUNNERS CLUB MILANO
20-02-1976


Informazioni sul tesseramento aggiornate al 2024


Condividi con
Seguici su:


100 metri

Anno Data Tipo Cr. Cat. Piazz. Prestaz. Vento Città  
202224/04PESF457 ba- 9 15.49+0.0Milano
 

200 metri

Anno Data Tipo Cr. Cat. Piazz. Prestaz. Vento Città  
202129/05PESF455 se- 8 31.81-3.2Carugate
202217/07PESF455 se- 4 31.91-1.4Brescia
 

400 metri

Anno Data Tipo Cr. Cat. Piazz. Prestaz. Vento Città  
202202/07PESF455 su- 1 1:09.77Agropoli
202115/05PESF453 se- 2 1:10.12Mantova
202401/06PESF453 se- 3 1:11.43Codogno
202301/09PESF454 se- 2 1:12.24Cernusco Sul Naviglio
 

800 metri

Anno Data Tipo Cr. Cat. Piazz. Prestaz. Vento Città  
201909/07PESF409 se- 1 2:31.45Cernusco Sul Naviglio
201812/07PESF407 se- 2 2:32.50Cernusco Sul Naviglio
202215/05PESF452 se- 6 2:32.65Bergamo
201804/07PESF407 su- 1 2:32.86Cernusco Lombardone
201926/06PESF401 se- 2 2:34.56Villasanta
202001/09PESF402 se- 7 2:35.60Brugherio
202229/05PESF453 su- 1 2:35.86Busto Arsizio
202212/06PESF453 su- 1 2:35.91Grosseto
202316/07PESF456 se- 2 2:35.99Salerno
202026/09PESF409 se- 3 2:36.26Milano
202220/07PESF452 se- 3 2:36.51Rovellasca
202321/05PESF452 su- 1 2:36.60Mantova
201828/04PESF405 su- 1 2:36.62Salerno
202306/06PESF457 se- 1 2:36.93Azzano San Paolo
201903/07PESF404 su- 1 2:37.06Cernusco Lombardone
202325/06PESF454 su- 1 2:37.28Acireale
202116/05PESF453 su- 1 2:37.36Mantova
201906/04PESF406 se- 3 2:37.36Romano Di Lombardia
201827/06PESF403 se- 2 2:37.38Milano
202312/07PESF459 se- 1 2:37.39Cernusco Lombardone
201912/05PESF403 su- 1 2:37.42Alzano Lombardo
201915/05PESF406 se- 2 2:37.56Mariano Comense
202314/05PESF458 se- 5 2:37.70Milano
201719/07PESF405 se- 2 2:37.79Cernusco Sul Naviglio
202105/06PESF452 su- 1 2:37.92Avellino
202112/09PESF455 su- 1 2:37.97Rieti
202117/06PESF457 se- 3 2:38.12Ferrara
201909/06PESF401 su- 1 2:38.37Salerno
202302/04PESF454 se- 1 2:39.01Brugherio
202421/04PESF458 se- 3 2:40.82Cairate
202414/04PESF454 se- 1 2:40.91Seregno
201817/06PESF401 su- 1 2:41.17Salerno
201705/07PESF404 se- 2 2:41.70Brugherio
202011/10PESF405 su- 1 2:42.26Arezzo
201815/04PESF405 su- 1 2:42.30Agropoli
201703/06PESF404 se- 2 2:44.33Salerno
201708/10PMSF401 su- 1 2:45.7Napoli
201716/09PESF405 se- 3 2:48.63Milano
 

1500 metri

Anno Data Tipo Cr. Cat. Piazz. Prestaz. Vento Città  
202313/05PESF451 se- 5 5:20.55Milano
202123/05PESF455 se- 2 5:23.71Milano
202314/06PESF455 se- 2 5:25.54Brescia
202324/06PESF453 su- 1 5:27.05Acireale
202111/09PESF457 su- 1 5:29.05Rieti
202211/06PESF458 su- 1 5:29.62Grosseto
202109/05PESF458 se- 1 5:30.09Milano
202215/10PESF452 su- 1 5:30.32Voghera
202316/04PESF458 se- 2 5:31.90Varese
201908/06PESF402 su- 1 5:34.26Salerno
202418/05PESF455 su- 1 5:35.06Milano
202005/09PMSF402 se- 3 5:36.7San Donato Milanese
202404/05PESF459 se- 1 5:37.97Brescia
201926/10PMSF401 su- 1 5:40.9Salerno
201816/06PESF401 su- 1 5:50.60Salerno
 

1 Miglio

Anno Data Tipo Cr. Cat. Piazz. Prestaz. Vento Città  
202327/05PESF452 se- 2 5:50.67Pioltello
202104/09PESF459 se- 2 5:53.77Milano
202109/10PESF456 se- 2 5:53.89Pioltello
202208/10PESF454 se- 2 5:54.56San Donato Milanese
202311/03PESF458 se- 3 5:56.16Milano
202005/09PESF402 se- 3 5:59.52San Donato Milanese
202307/10PESF456 se- 2 6:03.51Cornaredo
202423/03PESF4510 se- 3 6:06.38Pioltello
202226/03PESF457 se- 2 6:06.41Pioltello
201912/10PESF402 su- 1 6:13.32Carate Brianza
202409/03PESF4513 se- 3 6:19.85Milano
 

Corsa strada Km 10

Anno Data Tipo Cr. Cat. Piazz. Prestaz. Vento Città  
202322/10SESF45198 su- 1 46:05Milano
201825/11SMSF4034 su- 1 48:57 Milano
201924/11SMSF4049 su- 1 51:01 Milano
 

Salto in alto/HJ

Anno Data Tipo Cr. Cat. Piazz. Prestaz. Vento Città  
202314/06PSF456 su- 1 1.25Brescia
202211/09PSF451 se- 1 1.20Modena
 

Salto in lungo/LJ

Anno Data Tipo Cr. Cat. Piazz. Prestaz. Vento Città  
202401/06PSF456 su- 1 4.17+1.2Codogno
202315/07PSF456 se- 1 4.10+1.3Salerno
202210/09PSF451 se- 1 4.10+0.6Modena
202320/05PSF453 su- 1 3.97Mantova
202207/05PSF454 su- 1 3.68+1.0Mantova
 

Attenzione: le schede-atleti sono composte automaticamente sulla base dei dati inseriti all'interno degli archivi nazionali aggiornati dal 2005 al 22-07-2024. Se un risultato non compare nelle graduatorie, quindi, è segno che lo stesso, con ogni probabilità, non è stato ancora inserito. Il processo di inserimento è di competenza dei Comitati Regionali sul cui territorio ha avuto luogo la manifestazione: eventuali segnalazioni per errori od omissioni, vanno dunque indirizzate agli stessi (potete utilizzare l'elenco con relativi contatti). Considerato però che solo le principali manifestazioni nazionali sono oggetto di inserimenti "in diretta" (sul posto di gara), mentre le altre, incluse le internazionali in programma all'estero, vengono inserite in tempi successivi, è opportuno attendere un ragionevole lasso di tempo prima di procedere ad una segnalazione.

Stickers


Non ventosi

GaraTipoPrestazioneVentoAnnoCittà
100 metriPista 15.49+0.02022Milano
200 metriPista 31.81-3.22021Carugate
400 metriPista 1:09.772022Agropoli
800 metriPista 2:31.452019Cernusco Sul Naviglio
1500 metriPista 5:20.552023Milano
1 MiglioPista 5:50.672023Pioltello
Corsa strada Km 10Strada 46:052023Milano
Salto in alto/HJPista 1.252023Brescia
Salto in lungo/LJPista 4.17+1.22024Codogno

AnnoTipo mov.CategoriaSocietà
2024RinnovoSeniores 45 FemminileROAD RUNNERS CLUB MILANO
2023RinnovoSeniores 45 FemminileROAD RUNNERS CLUB MILANO
2022RinnovoSeniores 45 FemminileROAD RUNNERS CLUB MILANO
2021RinnovoSeniores 45 FemminileROAD RUNNERS CLUB MILANO
2020TrasferimentoSeniores 40 FemminileROAD RUNNERS CLUB MILANO
2019RinnovoSeniores 40 FemminileA.S.D. C.U.S. SALERNO
2018RinnovoSeniores 40 FemminileA.S.D. C.U.S. SALERNO
2017NuovoSeniores 40 FemminileA.S.D. C.U.S. SALERNO